User: anonymous   Login
Location: C�mpuri de-Sus
(45.9500°N, 22.5500°E)
Time: 02:31:31
(UTC+00:00)
Language:

Cosmos 2219 Rocket - Orbit

View from above orbital plane
View from above orbital plane
View from above satellite
View from above satellite

Ground track
Ground track

The orbit data is extracted from the following two-line orbital elements,

1 22220U 92076B   22019.56085847  .00000248  00000-0  14868-3 0  9993
2 22220  71.0007 128.3030 0014880 241.5903 204.5452 14.16482876508290
Epoch (UTC): 19 January 2022 13:27:38
Eccentricity: 0.0014880
inclination: 71.0007°
perigee height: 826 km
apogee height: 848 km
right ascension of ascending node: 128.3030°
argument of perigee: 241.5903°
revolutions per day: 14.16482876
mean anomaly at epoch: 204.5452°
orbit number at epoch: 50829

The dashed part of the orbit path shows where the satellite is in the earth's shadow,  

DLR